FW6934 Weather Reports


Display with metric or nautical units.
time (UTC)temp
F
wind
direction
speed
MPH
gust
MPH
rain 1hr
in
rain 24hr
in
rain mn
in
humidity
%
barometer
mb
20260510142003 52 225 0.0 3.0 0.00 0.00 0.00 83 1006.3
20260510141542 52 266 0.0 3.0 0.00 0.00 0.00 83 1006.1
20260510141051 52 245 0.0 0.0 0.00 0.00 0.00 83 1005.7
20260510140552 52 245 0.0 2.0 0.00 0.00 0.00 83 1005.8
20260510140007 52 245 0.0 2.0 0.00 0.00 0.00 84 1005.7
20260510135514 52 245 0.0 3.0 0.00 0.00 0.00 84 1005.6
20260510135022 52 245 0.0 3.0 0.00 0.00 0.00 83 1005.6
20260510134535 52 238 1.0 2.0 0.00 0.00 0.00 83 1005.8
20260510134044 52 230 0.0 3.0 0.00 0.00 0.00 83 1005.5
20260510133550 52 227 0.0 3.0 0.00 0.00 0.00 83 1005.7
20260510133058 52 227 0.0 3.0 0.00 0.00 0.00 83 1005.6
20260510132503 52 227 0.0 3.0 0.00 0.00 0.00 83 1005.6
20260510132017 52 227 1.0 3.0 0.00 0.00 0.00 83 1005.6
20260510131531 52 227 0.0 2.0 0.00 0.00 0.00 83 1005.3
20260510131033 52 227 1.0 2.0 0.00 0.00 0.00 83 1005.3
20260510130541 52 227 1.0 4.0 0.00 0.00 0.00 83 1005.2
20260510125503 52 261 1.0 3.0 0.00 0.00 0.00 83 1005.3
20260510125016 52 257 1.0 3.0 0.00 0.00 0.00 83 1005.3
20260510124552 52 257 0.0 3.0 0.00 0.00 0.00 83 1005.4
20260510124058 52 257 0.0 3.0 0.00 0.00 0.00 83 1005.5
20260510123603 52 292 0.0 1.0 0.00 0.00 0.00 83 1005.6
20260510123036 52 292 0.0 3.0 0.00 0.00 0.00 83 1005.6
20260510122540 52 292 0.0 3.0 0.00 0.00 0.00 83 1005.5
20260510122042 52 292 1.0 4.0 0.00 0.00 0.00 83 1005.5
20260510121556 52 292 0.0 4.0 0.00 0.00 0.00 83 1005.5
20260510121105 52 317 2.0 3.0 0.00 0.00 0.00 83 1005.4
20260510120602 52 14 1.0 3.0 0.00 0.00 0.00 83 1005.4
20260510120036 52 329 0.0 5.0 0.00 0.00 0.00 83 1005.5
20260510115542 53 329 2.0 5.0 0.00 0.00 0.00 83 1005.3
20260510115046 53 277 2.0 5.0 0.00 0.00 0.00 83 1005.4
20260510114518 53 290 0.0 5.0 0.00 0.00 0.00 83 1005.2
20260510114025 53 290 1.0 5.0 0.00 0.00 0.00 83 1005.3
20260510113530 53 230 0.0 4.0 0.00 0.00 0.00 83 1005.3
20260510113108 53 223 1.0 5.0 0.00 0.00 0.00 83 1005.2
20260510112602 53 287 2.0 5.0 0.00 0.00 0.00 83 1005.1
20260510112016 53 304 1.0 6.0 0.00 0.00 0.00 83 1005.2
20260510111526 53 295 1.0 6.0 0.00 0.00 0.00 82 1005.2
20260510111032 53 316 2.0 5.0 0.00 0.00 0.00 82 1005.4
20260510110538 53 273 0.0 3.0 0.00 0.00 0.00 82 1005.4
20260510110105 54 228 1.0 3.0 0.00 0.00 0.00 82 1005.3
20260510105513 54 46 0.0 0.0 0.00 0.00 0.00 82 1005.1
20260510105008 54 46 0.0 2.0 0.00 0.00 0.00 81 1004.9
20260510104533 54 46 0.0 3.0 0.00 0.00 0.00 81 1005.0
20260510104032 54 46 0.0 4.0 0.00 0.00 0.00 81 1004.9
20260510103538 54 360 0.0 4.0 0.00 0.00 0.00 81 1004.8
20260510103051 55 5 0.0 4.0 0.00 0.00 0.00 81 1004.8
20260510102552 55 21 2.0 4.0 0.00 0.00 0.00 80 1004.6
20260510102100 55 34 2.0 3.0 0.00 0.00 0.00 79 1004.6
20260510101536 55 5 1.0 3.0 0.00 0.00 0.00 79 1004.6
20260510101041 55 20 0.0 1.0 0.00 0.00 0.00 79 1004.3
20260510100541 55 20 0.0 1.0 0.00 0.00 0.00 79 1004.4
20260510100016 56 20 0.0 2.0 0.00 0.00 0.00 79 1004.2
20260510095522 56 20 1.0 2.0 0.00 0.00 0.00 78 1004.1
20260510095024 56 20 1.0 3.0 0.00 0.00 0.00 78 1003.9
20260510094552 56 28 2.0 3.0 0.00 0.00 0.00 77 1003.7
20260510094056 56 28 1.0 3.0 0.00 0.00 0.00 76 1003.7
20260510093602 56 28 0.0 0.0 0.00 0.00 0.00 76 1003.8
20260510093004 57 28 0.0 0.0 0.00 0.00 0.00 75 1003.8
20260510092509 57 28 0.0 0.0 0.00 0.00 0.00 75 1004.0
20260510092016 57 320 0.0 0.0 0.00 0.00 0.00 75 1004.0
20260510091544 57 279 0.0 0.0 0.00 0.00 0.00 74 1004.0
20260510091050 57 279 0.0 0.0 0.00 0.00 0.00 74 1004.0
20260510090556 57 279 0.0 0.0 0.00 0.00 0.00 74 1003.9
20260510090022 58 279 0.0 0.0 0.00 0.00 0.00 73 1003.9
20260510085525 58 279 0.0 0.0 0.00 0.00 0.00 73 1004.0
20260510085026 58 279 0.0 0.0 0.00 0.00 0.00 73 1003.9
20260510084559 58 279 0.0 0.0 0.00 0.00 0.00 73 1004.0
20260510084055 58 279 0.0 0.0 0.00 0.00 0.00 73 1003.9
20260510083600 58 279 0.0 0.0 0.00 0.00 0.00 72 1003.9
20260510083042 59 279 0.0 0.0 0.00 0.00 0.00 72 1003.8
20260510082533 59 279 0.0 0.0 0.00 0.00 0.00 72 1003.7
20260510082042 59 279 0.0 0.0 0.00 0.00 0.00 71 1003.7
20260510081534 59 279 0.0 3.0 0.00 0.00 0.00 71 1003.8
20260510081029 59 279 0.0 3.0 0.00 0.00 0.00 71 1003.7
20260510080515 59 269 0.0 0.0 0.00 0.00 0.00 71 1003.8
20260510080048 59 205 0.0 0.0 0.00 0.00 0.00 70 1003.7
20260510075555 60 205 0.0 0.0 0.00 0.00 0.00 69 1003.8
20260510075058 60 205 0.0 2.0 0.00 0.00 0.00 69 1003.7
20260510074510 60 199 0.0 3.0 0.00 0.00 0.00 69 1003.7
20260510074021 60 199 1.0 4.0 0.00 0.00 0.00 68 1003.6
20260510073527 60 199 1.0 4.0 0.00 0.00 0.00 68 1003.6
20260510073104 60 266 1.0 3.0 0.00 0.00 0.00 68 1003.6
20260510072507 60 268 1.0 3.0 0.00 0.00 0.00 68 1003.6
20260510072012 61 269 1.0 3.0 0.00 0.00 0.00 68 1003.7
20260510071540 61 269 2.0 3.0 0.00 0.00 0.00 67 1003.7
20260510071045 61 269 0.0 2.0 0.00 0.00 0.00 67 1003.7
20260510070553 61 269 0.0 2.0 0.00 0.00 0.00 67 1003.7
20260510070024 61 269 0.0 2.0 0.00 0.00 0.00 67 1003.7
20260510065523 61 268 0.0 0.0 0.00 0.00 0.00 66 1003.7
20260510065033 61 269 0.0 0.0 0.00 0.00 0.00 66 1003.7
20260510064552 61 269 0.0 0.0 0.00 0.00 0.00 66 1003.8
20260510064041 61 269 0.0 0.0 0.00 0.00 0.00 66 1003.7
20260510063548 61 268 0.0 2.0 0.00 0.00 0.00 66 1003.6
20260510063022 62 268 0.0 4.0 0.00 0.00 0.00 66 1003.7
20260510062523 62 294 1.0 3.0 0.00 0.00 0.00 65 1003.6
20260510062032 62 259 0.0 0.0 0.00 0.00 0.00 65 1003.6
20260510061505 62 235 0.0 3.0 0.00 0.00 0.00 64 1003.5
20260510061007 62 235 1.0 3.0 0.00 0.00 0.00 64 1003.5
20260510060516 62 232 1.0 3.0 0.00 0.00 0.00 63 1003.6
20260510060053 62 232 1.0 3.0 0.00 0.00 0.00 63 1003.5
20260510055600 62 232 2.0 3.0 0.00 0.00 0.00 63 1003.6
20260510055100 63 232 1.0 3.0 0.00 0.00 0.00 62 1003.6
20260510054537 63 232 2.0 3.0 0.00 0.00 0.00 61 1003.6
20260510054044 63 232 2.0 3.0 0.00 0.00 0.00 61 1003.6
20260510053545 63 232 1.0 3.0 0.00 0.00 0.00 61 1003.6
20260510053016 63 232 2.0 3.0 0.00 0.00 0.00 60 1003.6
20260510052518 63 232 1.0 3.0 0.00 0.00 0.00 60 1003.5
20260510052034 63 232 2.0 3.0 0.00 0.00 0.00 60 1003.5
20260510051605 64 232 2.0 3.0 0.00 0.00 0.00 59 1003.5
20260510051004 64 238 2.0 3.0 0.00 0.00 0.00 59 1003.5
20260510050509 64 238 2.0 3.0 0.00 0.00 0.00 59 1003.4
20260510050043 64 238 2.0 3.0 0.00 0.00 0.00 59 1003.4
20260510045552 64 238 1.0 3.0 0.00 0.00 0.00 59 1003.5
20260510045100 64 292 1.0 3.0 0.00 0.00 0.00 58 1003.4
20260510044544 64 247 1.0 3.0 0.00 0.00 0.00 58 1003.4
20260510044033 64 275 1.0 4.0 0.00 0.00 0.00 58 1003.5
20260510043538 65 232 1.0 4.0 0.00 0.00 0.00 57 1003.4
20260510043004 65 223 1.0 4.0 0.00 0.00 0.00 57 1003.4
20260510042504 65 268 1.0 4.0 0.00 0.00 0.00 57 1003.3
20260510042012 65 238 2.0 4.0 0.00 0.00 0.00 57 1003.4
20260510041550 65 224 1.0 3.0 0.00 0.00 0.00 57 1003.3
20260510041050 66 227 1.0 3.0 0.00 0.00 0.00 57 1003.1
20260510040556 66 226 0.0 3.0 0.00 0.00 0.00 57 1003.0
20260510040042 66 272 0.0 3.0 0.00 0.00 0.00 56 1003.0
20260510035544 67 285 1.0 3.0 0.00 0.00 0.00 56 1002.8
20260510035035 67 293 1.0 3.0 0.00 0.00 0.00 56 1002.7
20260510034546 67 280 1.0 3.0 0.00 0.00 0.00 56 1002.8
20260510034056 67 285 1.0 2.0 0.00 0.00 0.00 56 1002.7
20260510033604 68 285 1.0 2.0 0.00 0.00 0.00 55 1002.7
20260510033055 68 285 0.0 2.0 0.00 0.00 0.00 55 1002.7
20260510032550 68 285 1.0 2.0 0.00 0.00 0.00 55 1002.7
20260510032054 69 285 1.0 2.0 0.00 0.00 0.00 55 1002.6
20260510031532 69 285 1.0 2.0 0.00 0.00 0.00 55 1002.6
20260510031035 69 350 0.0 2.0 0.00 0.00 0.00 55 1002.6
20260510030541 69 350 1.0 2.0 0.00 0.00 0.00 54 1002.5
20260510030021 70 350 0.0 3.0 0.00 0.00 0.00 53 1002.5
20260510025529 70 350 1.0 4.0 0.00 0.00 0.00 53 1002.5
20260510025041 70 329 2.0 4.0 0.00 0.00 0.00 53 1002.5
20260510024517 71 51 0.0 5.0 0.00 0.00 0.00 53 1002.5
20260510024021 71 60 2.0 5.0 0.00 0.00 0.00 52 1002.5
20260510023528 71 22 2.0 5.0 0.00 0.00 0.00 52 1002.5
20260510023102 71 31 2.0 6.0 0.00 0.00 0.00 52 1002.4
20260510022508 72 20 2.0 6.0 0.00 0.00 0.00 52 1002.4
20260510022013 72 55 3.0 5.0 0.00 0.00 0.00 51 1002.4
20260510021552 72 11 1.0 4.0 0.00 0.00 0.00 53 1002.4
20260510021059 72 351 0.0 5.0 0.00 0.00 0.00 50 1002.3
20260510020507 72 43 1.0 4.0 0.00 0.00 0.00 48 1002.3
20260510020048 72 19 0.0 4.0 0.00 0.00 0.00 48 1002.3
20260510015555 73 17 2.0 4.0 0.00 0.00 0.00 48 1002.5
20260510015019 73 355 0.0 0.0 0.00 0.00 0.00 48 1002.4
20260510014528 73 355 0.0 0.0 0.00 0.00 0.00 47 1002.4
20260510014032 74 355 0.0 2.0 0.00 0.00 0.00 45 1002.5
20260510013536 74 350 1.0 2.0 0.00 0.00 0.00 47 1002.6
20260510013008 74 351 0.0 3.0 0.00 0.00 0.00 42 1002.5
20260510012519 74 350 1.0 3.0 0.00 0.00 0.00 40 1002.5
20260510012029 74 314 1.0 2.0 0.00 0.00 0.00 46 1002.5
20260510011558 75 314 1.0 3.0 0.00 0.00 0.00 44 1002.5
20260510011004 75 312 1.0 3.0 0.00 0.00 0.00 43 1002.6
20260510010511 75 331 1.0 3.0 0.00 0.00 0.00 42 1002.6
20260510010049 75 331 0.0 2.0 0.00 0.00 0.00 44 1002.6
20260510005557 74 22 0.0 3.0 0.00 0.00 0.00 45 1002.7
20260510005005 74 22 0.0 3.0 0.00 0.00 0.00 45 1002.6
20260510004528 74 332 0.0 1.0 0.00 0.00 0.00 43 1002.7
20260510004037 74 332 0.0 1.0 0.00 0.00 0.00 43 1002.6
20260510003545 75 332 0.0 3.0 0.00 0.00 0.00 44 1002.7
20260510003021 76 332 1.0 4.0 0.00 0.00 0.00 41 1002.7
20260510002515 76 238 1.0 3.0 0.00 0.00 0.00 43 1002.9
20260510002031 76 331 0.0 3.0 0.00 0.00 0.00 41 1002.9
20260510001546 76 355 0.0 4.0 0.00 0.00 0.00 35 1002.8
20260510001054 76 355 2.0 4.0 0.00 0.00 0.00 36 1003.0
20260510000558 77 315 0.0 3.0 0.00 0.00 0.00 36 1003.0
20260510000032 76 300 1.0 5.0 0.00 0.00 0.00 36 1003.0
20260509235539 76 337 3.0 5.0 0.00 0.00 0.00 38 1003.2
20260509235051 76 276 3.0 4.0 0.00 0.00 0.00 36 1003.1
20260509234539 76 5 0.0 8.0 0.00 0.00 0.00 41 1003.1
20260509234039 76 355 1.0 8.0 0.00 0.00 0.00 35 1003.2
20260509233544 76 268 1.0 5.0 0.00 0.00 0.00 33 1003.3
20260509233010 76 279 1.0 8.0 0.00 0.00 0.00 32 1003.3
20260509232528 76 279 4.0 8.0 0.00 0.00 0.00 34 1003.3
20260509232031 76 316 3.0 7.0 0.00 0.00 0.00 35 1003.3
20260509231602 77 279 3.0 6.0 0.00 0.00 0.00 33 1003.3
20260509231003 76 306 2.0 8.0 0.00 0.00 0.00 40 1003.5
20260509230509 76 253 4.0 8.0 0.00 0.00 0.00 35 1003.6
20260509230043 76 327 1.0 6.0 0.00 0.00 0.00 36 1003.7
20260509225552 76 58 2.0 6.0 0.00 0.00 0.00 38 1003.8
20260509225055 77 5 1.0 5.0 0.00 0.00 0.00 38 1003.9
20260509224532 77 22 1.0 6.0 0.00 0.00 0.00 37 1003.9
20260509224039 77 326 2.0 7.0 0.00 0.00 0.00 40 1004.0
20260509223543 77 57 1.0 6.0 0.00 0.00 0.00 42 1004.1
20260509223101 76 326 2.0 9.0 0.00 0.00 0.00 37 1004.2
20260509222505 76 21 3.0 9.0 0.00 0.00 0.00 42 1004.4
20260509222021 76 39 0.0 8.0 0.00 0.00 0.00 40 1004.5
20260509221537 76 336 4.0 8.0 0.00 0.00 0.00 39 1004.6
20260509221042 76 22 4.0 9.0 0.00 0.00 0.00 42 1004.7
20260509220550 76 299 2.0 9.0 0.00 0.00 0.00 42 1004.9
20260509220025 76 69 3.0 9.0 0.00 0.00 0.00 46 1004.9
20260509215526 75 74 4.0 8.0 0.00 0.00 0.00 45 1005.0
20260509215033 75 281 2.0 8.0 0.00 0.00 0.00 44 1005.1
20260509214559 75 54 3.0 7.0 0.00 0.00 0.00 47 1005.1
20260509214012 75 174 3.0 6.0 0.00 0.00 0.00 47 1005.1
20260509213519 74 44 3.0 7.0 0.00 0.00 0.00 48 1005.2
20260509213043 74 62 2.0 7.0 0.00 0.00 0.00 48 1005.1
20260509212550 74 239 1.0 5.0 0.00 0.00 0.00 47 1005.2
20260509212059 73 22 2.0 5.0 0.00 0.00 0.00 47 1005.3
20260509211533 72 51 2.0 8.0 0.00 0.00 0.00 49 1005.5
20260509211041 72 347 2.0 8.0 0.00 0.00 0.00 49 1005.6
20260509210553 73 302 2.0 6.0 0.00 0.00 0.00 48 1005.5
20260509210023 72 335 3.0 6.0 0.00 0.00 0.00 50 1005.7
20260509205529 72 28 3.0 6.0 0.00 0.00 0.00 49 1005.7
20260509205037 72 192 2.0 7.0 0.00 0.00 0.00 52 1005.6
20260509204505 72 240 3.0 7.0 0.00 0.00 0.00 54 1005.6
20260509204011 71 269 1.0 5.0 0.00 0.00 0.00 55 1005.6
20260509203519 71 316 1.0 5.0 0.00 0.00 0.00 53 1005.8
20260509203104 72 67 2.0 8.0 0.00 0.00 0.00 53 1005.9
20260509202601 72 5 2.0 9.0 0.00 0.00 0.00 52 1005.9
20260509202010 72 26 5.0 9.0 0.00 0.00 0.00 56 1006.1
20260509201553 72 17 4.0 8.0 0.00 0.00 0.00 54 1006.0
20260509201046 72 81 3.0 8.0 0.00 0.00 0.00 54 1006.2
20260509200553 71 339 3.0 8.0 0.00 0.00 0.00 57 1006.2
20260509200024 71 49 3.0 10.0 0.00 0.00 0.00 56 1006.3
20260509195530 71 19 4.0 9.0 0.00 0.00 0.00 56 1006.4
20260509195028 70 341 3.0 8.0 0.00 0.00 0.00 56 1006.3
20260509194555 70 347 4.0 11.0 0.00 0.00 0.00 57 1006.6
20260509194103 70 280 2.0 8.0 0.00 0.00 0.00 59 1006.6
20260509193508 69 5 2.0 9.0 0.00 0.00 0.00 59 1006.7
20260509193059 69 50 4.0 9.0 0.00 0.00 0.00 59 1006.6
20260509192548 69 338 3.0 9.0 0.00 0.00 0.00 61 1006.7
20260509192053 69 349 4.0 9.0 0.00 0.00 0.00 61 1006.7
20260509191527 68 290 2.0 9.0 0.00 0.00 0.00 61 1006.7
20260509191035 68 256 5.0 9.0 0.00 0.00 0.00 61 1006.7
20260509190541 69 30 4.0 8.0 0.00 0.00 0.00 61 1006.9
20260509190003 68 36 3.0 6.0 0.00 0.00 0.00 63 1007.0
20260509185509 67 340 3.0 8.0 0.00 0.00 0.00 62 1007.1
20260509185014 67 305 4.0 8.0 0.00 0.00 0.00 63 1007.1
20260509184600 67 40 2.0 6.0 0.00 0.00 0.00 64 1007.2
20260509184054 66 61 1.0 6.0 0.00 0.00 0.00 68 1007.3
20260509183559 66 44 4.0 6.0 0.00 0.00 0.00 65 1007.3
20260509183036 65 54 3.0 6.0 0.00 0.00 0.00 65 1007.4
20260509182539 65 21 0.0 10.0 0.00 0.00 0.00 67 1007.3
20260509182046 65 306 4.0 10.0 0.00 0.00 0.00 67 1007.5
20260509181511 65 355 2.0 5.0 0.00 0.00 0.00 68 1007.5
20260509181031 64 35 2.0 5.0 0.00 0.00 0.00 68 1007.5
20260509180531 63 92 2.0 7.0 0.00 0.00 0.00 69 1007.5
20260509180056 63 340 4.0 7.0 0.00 0.00 0.00 71 1007.6
20260509175503 63 46 2.0 5.0 0.00 0.00 0.00 69 1007.5
20260509175019 63 5 3.0 6.0 0.00 0.00 0.00 72 1007.6
20260509174549 62 304 2.0 6.0 0.00 0.00 0.00 72 1007.6
20260509174054 62 86 2.0 6.0 0.00 0.00 0.00 73 1007.6
20260509173600 61 55 2.0 7.0 0.00 0.00 0.00 71 1007.6
20260509173042 61 56 3.0 7.0 0.00 0.00 0.00 72 1007.7
20260509172541 61 61 1.0 6.0 0.00 0.00 0.00 72 1007.7
20260509172047 61 31 2.0 5.0 0.00 0.00 0.00 74 1007.8
20260509171535 61 32 2.0 5.0 0.00 0.00 0.00 74 1007.8
20260509171028 61 311 3.0 5.0 0.00 0.00 0.00 73 1008.0
20260509170535 61 5 2.0 6.0 0.00 0.00 0.00 75 1008.1
20260509165504 60 111 2.0 5.0 0.00 0.00 0.00 73 1008.2
20260509165021 60 44 3.0 5.0 0.00 0.00 0.00 74 1008.2
20260509164548 59 35 1.0 5.0 0.00 0.00 0.00 74 1008.2
20260509164057 60 355 1.0 5.0 0.00 0.00 0.00 74 1008.2
20260509163605 59 40 3.0 4.0 0.00 0.00 0.00 77 1008.3
20260509163038 58 13 0.0 4.0 0.00 0.00 0.00 76 1008.6
20260509162546 59 49 2.0 8.0 0.00 0.00 0.00 76 1008.5
20260509162053 59 51 4.0 8.0 0.00 0.00 0.00 78 1008.6
20260509161530 59 55 2.0 5.0 0.00 0.00 0.00 77 1008.7
20260509161033 58 71 2.0 5.0 0.00 0.00 0.00 79 1008.7
20260509160538 58 294 2.0 5.0 0.00 0.00 0.00 77 1008.8
20260509160019 57 49 3.0 5.0 0.00 0.00 0.00 77 1008.8
20260509155520 57 36 2.0 4.0 0.00 0.00 0.00 76 1008.8
20260509155024 57 295 2.0 5.0 0.00 0.00 0.00 77 1008.9
20260509154552 57 304 1.0 5.0 0.00 0.00 0.00 78 1008.9
20260509154059 57 38 0.0 5.0 0.00 0.00 0.00 78 1008.9
20260509153603 56 40 1.0 4.0 0.00 0.00 0.00 79 1008.8
20260509153037 56 9 1.0 5.0 0.00 0.00 0.00 79 1008.9
20260509152543 56 288 1.0 4.0 0.00 0.00 0.00 80 1008.8
20260509152042 55 311 1.0 4.0 0.00 0.00 0.00 83 1008.9
20260509151504 55 32 1.0 4.0 0.00 0.00 0.00 86 1008.9
20260509151018 54 349 0.0 1.0 0.00 0.00 0.00 87 1009.0
20260509150526 54 347 0.0 3.0 0.00 0.00 0.00 88 1008.9
20260509150106 53 306 0.0 3.0 0.00 0.00 0.00 89 1008.9
20260509145600 53 311 1.0 3.0 0.00 0.00 0.00 89 1009.0
20260509145005 52 310 1.0 3.0 0.00 0.00 0.00 89 1009.1
20260509144625 52 310 0.0 1.0 0.00 0.00 0.00 89 1009.1
20260509144051 52 296 0.0 0.0 0.00 0.00 0.00 90 1009.1
20260509143555 51 246 0.0 0.0 0.00 0.00 0.00 90 1009.0
20260509143029 51 245 0.0 0.0 0.00 0.00 0.00 90 1009.0
20260509142538 51 245 0.0 0.0 0.00 0.00 0.00 90 1008.9